| time (UTC) | temp F | wind direction | speed MPH | gust MPH | rain 1hr in | rain 24hr in | rain mn in | humidity % | barometer mb |
| 20260506132027 | 52 | 229 | 2.0 | 6.0 | 0.00 | 0.00 | 0.00 | 90 | 1020.2 |
| 20260506131555 | 52 | 249 | 3.0 | 7.0 | 0.00 | 0.00 | 0.00 | 90 | 1020.2 |
| 20260506131025 | 52 | 244 | 2.0 | 7.0 | 0.00 | 0.00 | 0.00 | 90 | 1020.1 |
| 20260506130527 | 52 | 274 | 2.0 | 5.0 | 0.00 | 0.00 | 0.00 | 90 | 1020.1 |
| 20260506130046 | 52 | 237 | 2.0 | 4.0 | 0.00 | 0.00 | 0.00 | 90 | 1020.1 |
| 20260506125525 | 52 | 285 | 1.0 | 5.0 | 0.00 | 0.00 | 0.00 | 90 | 1019.7 |
| 20260506125025 | 52 | 219 | 2.0 | 5.0 | 0.00 | 0.00 | 0.00 | 90 | 1019.8 |
| 20260506124544 | 52 | 243 | 3.0 | 7.0 | 0.00 | 0.00 | 0.00 | 90 | 1019.7 |
| 20260506124025 | 52 | 236 | 2.0 | 7.0 | 0.00 | 0.00 | 0.00 | 90 | 1019.7 |
| 20260506123529 | 52 | 208 | 3.0 | 8.0 | 0.00 | 0.00 | 0.00 | 90 | 1019.7 |
| 20260506123043 | 52 | 244 | 2.0 | 8.0 | 0.00 | 0.00 | 0.00 | 90 | 1019.7 |
| 20260506122525 | 52 | 287 | 3.0 | 7.0 | 0.00 | 0.00 | 0.00 | 90 | 1019.7 |
| 20260506122025 | 52 | 230 | 2.0 | 8.0 | 0.00 | 0.00 | 0.00 | 90 | 1019.6 |
| 20260506121542 | 52 | 296 | 3.0 | 9.0 | 0.00 | 0.00 | 0.00 | 90 | 1019.7 |
| 20260506121025 | 52 | 233 | 3.0 | 13.0 | 0.00 | 0.00 | 0.00 | 90 | 1019.5 |
| 20260506120527 | 52 | 257 | 6.0 | 13.0 | 0.00 | 0.00 | 0.00 | 90 | 1019.5 |
| 20260506120041 | 52 | 248 | 3.0 | 10.0 | 0.00 | 0.00 | 0.00 | 90 | 1019.5 |
| 20260506115525 | 52 | 275 | 4.0 | 9.0 | 0.00 | 0.00 | 0.00 | 90 | 1019.6 |
| 20260506115025 | 52 | 263 | 4.0 | 9.0 | 0.00 | 0.00 | 0.00 | 90 | 1019.5 |
| 20260506114542 | 52 | 246 | 5.0 | 10.0 | 0.00 | 0.00 | 0.00 | 89 | 1019.5 |
| 20260506114029 | 52 | 310 | 4.0 | 10.0 | 0.00 | 0.00 | 0.00 | 89 | 1019.4 |
| 20260506113525 | 52 | 254 | 3.0 | 11.0 | 0.00 | 0.00 | 0.00 | 89 | 1019.3 |
| 20260506113042 | 52 | 257 | 5.0 | 11.0 | 0.00 | 0.00 | 0.00 | 89 | 1019.3 |
| 20260506112524 | 52 | 241 | 4.0 | 11.0 | 0.00 | 0.00 | 0.00 | 89 | 1019.3 |
| 20260506112024 | 52 | 202 | 3.0 | 7.0 | 0.00 | 0.00 | 0.00 | 90 | 1019.3 |
| 20260506111540 | 52 | 274 | 3.0 | 8.0 | 0.00 | 0.00 | 0.00 | 90 | 1019.2 |
| 20260506111028 | 52 | 259 | 2.0 | 8.0 | 0.00 | 0.00 | 0.00 | 90 | 1019.2 |
| 20260506110530 | 52 | 277 | 3.0 | 7.0 | 0.00 | 0.00 | 0.00 | 90 | 1019.3 |
| 20260506110040 | 53 | 246 | 3.0 | 8.0 | 0.00 | 0.00 | 0.00 | 90 | 1019.3 |
| 20260506105526 | 53 | 240 | 3.0 | 8.0 | 0.00 | 0.00 | 0.00 | 90 | 1019.2 |
| 20260506105030 | 53 | 271 | 1.0 | 8.0 | 0.00 | 0.00 | 0.00 | 90 | 1019.2 |
| 20260506104547 | 53 | 253 | 5.0 | 8.0 | 0.00 | 0.00 | 0.00 | 89 | 1019.2 |
| 20260506104025 | 53 | 232 | 3.0 | 9.0 | 0.00 | 0.00 | 0.00 | 89 | 1019.1 |
| 20260506103525 | 53 | 284 | 4.0 | 11.0 | 0.00 | 0.00 | 0.00 | 89 | 1019.1 |
| 20260506103042 | 53 | 244 | 4.0 | 11.0 | 0.00 | 0.00 | 0.00 | 89 | 1019.1 |
| 20260506102525 | 53 | 257 | 4.0 | 11.0 | 0.00 | 0.00 | 0.00 | 89 | 1019.1 |
| 20260506102025 | 53 | 221 | 4.0 | 8.0 | 0.00 | 0.00 | 0.00 | 89 | 1019.0 |
| 20260506101536 | 53 | 269 | 4.0 | 8.0 | 0.00 | 0.00 | 0.00 | 89 | 1018.9 |
| 20260506101025 | 53 | 293 | 3.0 | 10.0 | 0.00 | 0.00 | 0.00 | 89 | 1018.9 |
| 20260506100529 | 53 | 269 | 5.0 | 10.0 | 0.00 | 0.00 | 0.00 | 89 | 1018.9 |
| 20260506100042 | 53 | 274 | 6.0 | 11.0 | 0.00 | 0.00 | 0.00 | 89 | 1018.8 |
| 20260506095527 | 53 | 161 | 3.0 | 11.0 | 0.00 | 0.00 | 0.00 | 89 | 1018.9 |
| 20260506095025 | 53 | 223 | 2.0 | 10.0 | 0.00 | 0.00 | 0.00 | 89 | 1018.9 |
| 20260506094551 | 53 | 255 | 3.0 | 10.0 | 0.00 | 0.00 | 0.00 | 89 | 1018.7 |
| 20260506094028 | 53 | 218 | 4.0 | 9.0 | 0.00 | 0.00 | 0.00 | 89 | 1018.8 |
| 20260506093524 | 53 | 234 | 5.0 | 9.0 | 0.00 | 0.00 | 0.00 | 89 | 1018.7 |
| 20260506093041 | 53 | 224 | 2.0 | 6.0 | 0.00 | 0.00 | 0.00 | 89 | 1018.6 |
| 20260506092525 | 53 | 163 | 2.0 | 7.0 | 0.00 | 0.00 | 0.00 | 89 | 1018.6 |
| 20260506092028 | 53 | 248 | 3.0 | 7.0 | 0.00 | 0.00 | 0.00 | 89 | 1018.6 |
| 20260506091541 | 53 | 227 | 3.0 | 13.0 | 0.00 | 0.00 | 0.00 | 89 | 1018.5 |
| 20260506091026 | 53 | 230 | 3.0 | 13.0 | 0.00 | 0.00 | 0.00 | 89 | 1018.5 |
| 20260506090525 | 53 | 259 | 2.0 | 7.0 | 0.00 | 0.00 | 0.00 | 89 | 1018.6 |
| 20260506090039 | 53 | 252 | 3.0 | 7.0 | 0.00 | 0.00 | 0.00 | 89 | 1018.6 |
| 20260506085527 | 53 | 230 | 4.0 | 11.0 | 0.00 | 0.00 | 0.00 | 88 | 1018.6 |
| 20260506085027 | 53 | 225 | 4.0 | 11.0 | 0.00 | 0.00 | 0.00 | 88 | 1018.6 |
| 20260506084545 | 53 | 242 | 2.0 | 8.0 | 0.00 | 0.00 | 0.00 | 88 | 1018.5 |
| 20260506084028 | 53 | 221 | 3.0 | 8.0 | 0.00 | 0.00 | 0.00 | 88 | 1018.4 |
| 20260506083527 | 53 | 220 | 3.0 | 7.0 | 0.00 | 0.00 | 0.00 | 88 | 1018.3 |
| 20260506083044 | 53 | 184 | 2.0 | 6.0 | 0.00 | 0.00 | 0.00 | 88 | 1018.2 |
| 20260506082530 | 53 | 157 | 2.0 | 7.0 | 0.00 | 0.00 | 0.00 | 88 | 1018.2 |
| 20260506082030 | 53 | 186 | 3.0 | 7.0 | 0.00 | 0.00 | 0.00 | 88 | 1018.2 |
| 20260506081543 | 53 | 198 | 3.0 | 7.0 | 0.00 | 0.00 | 0.00 | 88 | 1018.2 |
| 20260506081027 | 53 | 163 | 2.0 | 7.0 | 0.00 | 0.00 | 0.00 | 88 | 1018.1 |
| 20260506080527 | 53 | 251 | 0.0 | 7.0 | 0.00 | 0.00 | 0.00 | 88 | 1018.0 |
| 20260506073527 | 53 | 218 | 1.0 | 5.0 | 0.00 | 0.00 | 0.00 | 88 | 1017.7 |
| 20260506073041 | 53 | 219 | 1.0 | 3.0 | 0.00 | 0.00 | 0.00 | 88 | 1017.6 |
| 20260506072531 | 53 | 234 | 1.0 | 5.0 | 0.00 | 0.00 | 0.00 | 88 | 1017.6 |
| 20260506072028 | 54 | 206 | 2.0 | 5.0 | 0.00 | 0.00 | 0.00 | 88 | 1017.6 |
| 20260506071547 | 54 | 243 | 2.0 | 5.0 | 0.00 | 0.00 | 0.00 | 88 | 1017.6 |
| 20260506071027 | 53 | 232 | 2.0 | 9.0 | 0.00 | 0.00 | 0.00 | 88 | 1017.6 |
| 20260506070527 | 54 | 209 | 3.0 | 9.0 | 0.00 | 0.00 | 0.00 | 88 | 1017.5 |
| 20260506062027 | 53 | 240 | 2.0 | 8.0 | 0.00 | 0.00 | 0.00 | 89 | 1017.4 |
| 20260506061541 | 53 | 201 | 4.0 | 8.0 | 0.00 | 0.00 | 0.00 | 89 | 1017.3 |
| 20260506061031 | 53 | 242 | 4.0 | 8.0 | 0.00 | 0.00 | 0.00 | 89 | 1017.4 |
| 20260506060529 | 53 | 210 | 3.0 | 7.0 | 0.00 | 0.00 | 0.00 | 89 | 1017.3 |
| 20260506051027 | 52 | 165 | 4.0 | 5.0 | 0.00 | 0.00 | 0.00 | 91 | 1017.0 |
| 20260506050526 | 52 | 161 | 3.0 | 5.0 | 0.00 | 0.00 | 0.00 | 90 | 1016.8 |
| 20260506045026 | 53 | 174 | 2.0 | 5.0 | 0.00 | 0.00 | 0.00 | 89 | 1016.8 |
| 20260506044544 | 53 | 153 | 2.0 | 5.0 | 0.00 | 0.00 | 0.00 | 89 | 1016.8 |
| 20260506044026 | 53 | 149 | 3.0 | 4.0 | 0.00 | 0.00 | 0.00 | 89 | 1016.8 |
| 20260506043526 | 54 | 163 | 2.0 | 4.0 | 0.00 | 0.00 | 0.00 | 89 | 1016.7 |
| 20260506043040 | 54 | 165 | 3.0 | 5.0 | 0.00 | 0.00 | 0.00 | 88 | 1016.6 |
| 20260506042526 | 54 | 160 | 2.0 | 5.0 | 0.00 | 0.00 | 0.00 | 89 | 1016.6 |
| 20260506042026 | 54 | 170 | 2.0 | 4.0 | 0.00 | 0.00 | 0.00 | 89 | 1016.5 |
| 20260506041547 | 54 | 176 | 2.0 | 4.0 | 0.00 | 0.00 | 0.00 | 88 | 1016.5 |
| 20260506041026 | 54 | 166 | 2.0 | 4.0 | 0.00 | 0.00 | 0.00 | 88 | 1016.5 |
| 20260506040529 | 54 | 212 | 2.0 | 4.0 | 0.00 | 0.00 | 0.00 | 87 | 1016.4 |
| 20260506040044 | 55 | 198 | 1.0 | 4.0 | 0.00 | 0.00 | 0.00 | 87 | 1016.4 |
| 20260506035527 | 55 | 209 | 1.0 | 5.0 | 0.00 | 0.00 | 0.00 | 86 | 1016.3 |
| 20260506035027 | 55 | 189 | 2.0 | 5.0 | 0.00 | 0.00 | 0.00 | 86 | 1016.2 |
| 20260506034543 | 56 | 190 | 2.0 | 5.0 | 0.00 | 0.00 | 0.00 | 85 | 1016.2 |
| 20260506034026 | 56 | 214 | 2.0 | 5.0 | 0.00 | 0.00 | 0.00 | 86 | 1016.1 |
| 20260506033526 | 56 | 172 | 2.0 | 6.0 | 0.00 | 0.00 | 0.00 | 86 | 1016.0 |
| 20260506033041 | 56 | 200 | 2.0 | 6.0 | 0.00 | 0.00 | 0.00 | 84 | 1016.0 |
| 20260506032527 | 57 | 222 | 2.0 | 6.0 | 0.00 | 0.00 | 0.00 | 83 | 1016.0 |
| 20260506032026 | 58 | 200 | 1.0 | 4.0 | 0.00 | 0.00 | 0.00 | 83 | 1016.0 |
| 20260506031541 | 58 | 206 | 2.0 | 5.0 | 0.00 | 0.00 | 0.00 | 82 | 1015.9 |
| 20260506031026 | 59 | 230 | 2.0 | 5.0 | 0.00 | 0.00 | 0.00 | 81 | 1015.9 |
| 20260506030527 | 59 | 206 | 3.0 | 4.0 | 0.00 | 0.00 | 0.00 | 80 | 1015.9 |
| 20260506030040 | 60 | 211 | 1.0 | 4.0 | 0.00 | 0.00 | 0.00 | 80 | 1015.8 |
| 20260506025526 | 60 | 213 | 2.0 | 5.0 | 0.00 | 0.00 | 0.00 | 79 | 1015.8 |
| 20260506025028 | 60 | 223 | 2.0 | 6.0 | 0.00 | 0.00 | 0.00 | 79 | 1015.8 |
| 20260506024550 | 60 | 273 | 3.0 | 7.0 | 0.00 | 0.00 | 0.00 | 78 | 1015.8 |
| 20260506024027 | 61 | 267 | 3.0 | 8.0 | 0.00 | 0.00 | 0.00 | 78 | 1015.8 |
| 20260506023527 | 61 | 246 | 4.0 | 8.0 | 0.00 | 0.00 | 0.00 | 78 | 1015.8 |
| 20260506023043 | 61 | 234 | 4.0 | 7.0 | 0.00 | 0.00 | 0.00 | 78 | 1015.8 |
| 20260506022530 | 61 | 277 | 3.0 | 7.0 | 0.00 | 0.00 | 0.00 | 77 | 1015.9 |
| 20260506022026 | 62 | 269 | 2.0 | 7.0 | 0.00 | 0.00 | 0.00 | 77 | 1015.8 |
| 20260506021540 | 62 | 213 | 2.0 | 9.0 | 0.00 | 0.00 | 0.00 | 77 | 1015.9 |
| 20260506021028 | 62 | 268 | 4.0 | 9.0 | 0.00 | 0.00 | 0.00 | 76 | 1015.8 |
| 20260506020526 | 62 | 208 | 3.0 | 8.0 | 0.00 | 0.00 | 0.00 | 76 | 1015.8 |
| 20260506020041 | 62 | 286 | 3.0 | 8.0 | 0.00 | 0.00 | 0.00 | 77 | 1015.7 |
| 20260506015530 | 62 | 227 | 3.0 | 9.0 | 0.00 | 0.00 | 0.00 | 77 | 1015.7 |
| 20260506015027 | 62 | 240 | 4.0 | 12.0 | 0.00 | 0.00 | 0.00 | 76 | 1015.7 |
| 20260506014543 | 62 | 230 | 6.0 | 12.0 | 0.00 | 0.00 | 0.00 | 76 | 1015.7 |
| 20260506014026 | 62 | 263 | 8.0 | 12.0 | 0.00 | 0.00 | 0.00 | 76 | 1015.7 |
| 20260506013529 | 63 | 242 | 5.0 | 11.0 | 0.00 | 0.00 | 0.00 | 75 | 1015.7 |
| 20260506013038 | 63 | 269 | 7.0 | 11.0 | 0.00 | 0.00 | 0.00 | 75 | 1015.8 |
| 20260506012527 | 63 | 219 | 5.0 | 10.0 | 0.00 | 0.00 | 0.00 | 74 | 1015.7 |
| 20260506012028 | 63 | 225 | 4.0 | 9.0 | 0.00 | 0.00 | 0.00 | 74 | 1015.7 |
| 20260506011544 | 63 | 240 | 4.0 | 9.0 | 0.00 | 0.00 | 0.00 | 74 | 1015.7 |
| 20260506011029 | 63 | 206 | 4.0 | 9.0 | 0.00 | 0.00 | 0.00 | 74 | 1015.7 |
| 20260506010527 | 63 | 225 | 5.0 | 9.0 | 0.00 | 0.00 | 0.00 | 74 | 1015.7 |
| 20260506010043 | 63 | 223 | 3.0 | 9.0 | 0.00 | 0.00 | 0.00 | 75 | 1015.7 |
| 20260506005527 | 63 | 240 | 5.0 | 9.0 | 0.00 | 0.00 | 0.00 | 74 | 1015.8 |
| 20260506005026 | 63 | 257 | 5.0 | 10.0 | 0.00 | 0.00 | 0.00 | 74 | 1015.8 |
| 20260506004541 | 63 | 197 | 5.0 | 10.0 | 0.00 | 0.00 | 0.00 | 75 | 1016.0 |
| 20260506004028 | 63 | 245 | 3.0 | 11.0 | 0.00 | 0.00 | 0.00 | 74 | 1016.0 |
| 20260506003526 | 63 | 225 | 5.0 | 11.0 | 0.00 | 0.00 | 0.00 | 75 | 1016.0 |
| 20260506003040 | 63 | 219 | 4.0 | 9.0 | 0.00 | 0.00 | 0.00 | 74 | 1015.9 |
| 20260506002526 | 63 | 227 | 3.0 | 9.0 | 0.00 | 0.00 | 0.00 | 76 | 1015.9 |
| 20260506002026 | 62 | 246 | 4.0 | 10.0 | 0.00 | 0.00 | 0.00 | 76 | 1015.9 |
| 20260506001542 | 62 | 226 | 5.0 | 10.0 | 0.00 | 0.00 | 0.00 | 77 | 1015.9 |
| 20260506001026 | 62 | 234 | 3.0 | 9.0 | 0.00 | 0.00 | 0.00 | 77 | 1016.0 |
| 20260506000527 | 62 | 259 | 3.0 | 10.0 | 0.00 | 0.00 | 0.00 | 78 | 1016.0 |
| 20260506000040 | 62 | 284 | 6.0 | 10.0 | 0.00 | 0.00 | 0.00 | 77 | 1015.9 |
| 20260505235530 | 62 | 261 | 3.0 | 10.0 | 0.00 | 0.00 | 0.00 | 77 | 1016.0 |
| 20260505235027 | 62 | 224 | 4.0 | 10.0 | 0.00 | 0.00 | 0.00 | 77 | 1016.0 |
| 20260505234548 | 62 | 232 | 5.0 | 10.0 | 0.00 | 0.00 | 0.00 | 76 | 1016.1 |
| 20260505234026 | 62 | 246 | 2.0 | 7.0 | 0.00 | 0.00 | 0.00 | 76 | 1016.1 |
| 20260505233526 | 62 | 273 | 3.0 | 7.0 | 0.00 | 0.00 | 0.00 | 76 | 1016.2 |
| 20260505233042 | 62 | 200 | 3.0 | 8.0 | 0.00 | 0.00 | 0.00 | 77 | 1016.3 |
| 20260505232527 | 62 | 244 | 4.0 | 8.0 | 0.00 | 0.00 | 0.00 | 76 | 1016.2 |
| 20260505232027 | 63 | 306 | 3.0 | 7.0 | 0.00 | 0.00 | 0.00 | 76 | 1016.3 |
| 20260505231552 | 63 | 292 | 3.0 | 7.0 | 0.00 | 0.00 | 0.00 | 76 | 1016.4 |
| 20260505231027 | 63 | 311 | 3.0 | 9.0 | 0.00 | 0.00 | 0.00 | 79 | 1016.4 |
| 20260505230526 | 62 | 244 | 4.0 | 9.0 | 0.00 | 0.00 | 0.00 | 78 | 1016.5 |
| 20260505230053 | 62 | 259 | 4.0 | 9.0 | 0.00 | 0.00 | 0.00 | 78 | 1016.6 |
| 20260505225528 | 62 | 244 | 2.0 | 10.0 | 0.00 | 0.00 | 0.00 | 78 | 1016.5 |
| 20260505225030 | 62 | 0 | 5.0 | 10.0 | 0.00 | 0.00 | 0.00 | 77 | 1016.6 |
| 20260505224541 | 62 | 207 | 3.0 | 7.0 | 0.00 | 0.00 | 0.00 | 78 | 1016.6 |
| 20260505224026 | 62 | 271 | 2.0 | 6.0 | 0.00 | 0.00 | 0.00 | 78 | 1016.7 |
| 20260505223529 | 61 | 342 | 3.0 | 6.0 | 0.00 | 0.00 | 0.00 | 77 | 1016.6 |
| 20260505223044 | 62 | 296 | 2.0 | 6.0 | 0.00 | 0.00 | 0.00 | 79 | 1016.6 |
| 20260505222527 | 62 | 265 | 1.0 | 11.0 | 0.00 | 0.00 | 0.00 | 79 | 1016.7 |
| 20260505222027 | 61 | 235 | 4.0 | 11.0 | 0.00 | 0.00 | 0.00 | 78 | 1016.7 |
| 20260505221543 | 61 | 168 | 4.0 | 9.0 | 0.00 | 0.00 | 0.00 | 78 | 1016.8 |
| 20260505221034 | 61 | 241 | 3.0 | 9.0 | 0.00 | 0.00 | 0.00 | 78 | 1016.9 |
| 20260505220525 | 61 | 207 | 2.0 | 6.0 | 0.00 | 0.00 | 0.00 | 78 | 1016.8 |
| 20260505220043 | 61 | 0 | 0.0 | 6.0 | 0.00 | 0.00 | 0.00 | 79 | 1016.9 |
| 20260505215529 | 61 | 223 | 1.0 | 8.0 | 0.00 | 0.00 | 0.00 | 80 | 1016.9 |
| 20260505215028 | 61 | 281 | 3.0 | 8.0 | 0.00 | 0.00 | 0.00 | 79 | 1016.8 |
| 20260505214540 | 61 | 275 | 2.0 | 10.0 | 0.00 | 0.00 | 0.00 | 79 | 1016.9 |
| 20260505214026 | 61 | 235 | 4.0 | 10.0 | 0.00 | 0.00 | 0.00 | 78 | 1017.0 |
| 20260505213526 | 61 | 296 | 2.0 | 10.0 | 0.00 | 0.00 | 0.00 | 78 | 1017.0 |
| 20260505213048 | 61 | 220 | 2.0 | 10.0 | 0.00 | 0.00 | 0.00 | 79 | 1016.9 |
| 20260505212531 | 61 | 153 | 3.0 | 8.0 | 0.00 | 0.00 | 0.00 | 78 | 1017.0 |
| 20260505212027 | 61 | 251 | 2.0 | 9.0 | 0.00 | 0.00 | 0.00 | 79 | 1017.0 |
| 20260505211544 | 61 | 175 | 5.0 | 9.0 | 0.00 | 0.00 | 0.00 | 79 | 1017.0 |
| 20260505211026 | 61 | 161 | 4.0 | 8.0 | 0.00 | 0.00 | 0.00 | 79 | 1017.0 |
| 20260505210527 | 61 | 192 | 2.0 | 7.0 | 0.00 | 0.00 | 0.00 | 81 | 1017.1 |
| 20260505210041 | 60 | 174 | 4.0 | 8.0 | 0.00 | 0.00 | 0.00 | 80 | 1017.1 |
| 20260505205528 | 60 | 180 | 4.0 | 8.0 | 0.00 | 0.00 | 0.00 | 79 | 1017.1 |
| 20260505205028 | 60 | 210 | 4.0 | 8.0 | 0.00 | 0.00 | 0.00 | 79 | 1017.1 |
| 20260505204541 | 60 | 222 | 3.0 | 8.0 | 0.00 | 0.00 | 0.00 | 80 | 1017.1 |
| 20260505204026 | 60 | 163 | 4.0 | 8.0 | 0.00 | 0.00 | 0.00 | 81 | 1017.2 |
| 20260505203527 | 60 | 192 | 4.0 | 8.0 | 0.00 | 0.00 | 0.00 | 79 | 1017.2 |
| 20260505203040 | 60 | 232 | 4.0 | 8.0 | 0.00 | 0.00 | 0.00 | 80 | 1017.2 |
| 20260505202527 | 60 | 194 | 3.0 | 9.0 | 0.00 | 0.00 | 0.00 | 81 | 1017.1 |
| 20260505202028 | 60 | 177 | 4.0 | 10.0 | 0.00 | 0.00 | 0.00 | 79 | 1017.2 |
| 20260505201540 | 60 | 174 | 3.0 | 10.0 | 0.00 | 0.00 | 0.00 | 80 | 1017.2 |
| 20260505201028 | 60 | 173 | 3.0 | 8.0 | 0.00 | 0.00 | 0.00 | 80 | 1017.2 |
| 20260505200527 | 60 | 222 | 2.0 | 7.0 | 0.00 | 0.00 | 0.00 | 79 | 1017.1 |
| 20260505200043 | 60 | 225 | 2.0 | 5.0 | 0.00 | 0.00 | 0.00 | 81 | 1017.2 |
| 20260505195531 | 59 | 143 | 3.0 | 5.0 | 0.00 | 0.00 | 0.00 | 79 | 1017.1 |
| 20260505195026 | 59 | 284 | 2.0 | 8.0 | 0.00 | 0.00 | 0.00 | 81 | 1017.2 |
| 20260505194540 | 59 | 227 | 3.0 | 8.0 | 0.00 | 0.00 | 0.00 | 80 | 1017.3 |
| 20260505194026 | 59 | 196 | 3.0 | 7.0 | 0.00 | 0.00 | 0.00 | 81 | 1017.3 |
| 20260505193525 | 59 | 201 | 4.0 | 11.0 | 0.00 | 0.00 | 0.00 | 81 | 1017.2 |
| 20260505193042 | 59 | 167 | 3.0 | 11.0 | 0.00 | 0.00 | 0.00 | 81 | 1017.3 |
| 20260505192528 | 59 | 200 | 4.0 | 11.0 | 0.00 | 0.00 | 0.00 | 80 | 1017.3 |
| 20260505192025 | 59 | 189 | 4.0 | 7.0 | 0.00 | 0.00 | 0.00 | 81 | 1017.2 |
| 20260505191550 | 59 | 173 | 4.0 | 7.0 | 0.00 | 0.00 | 0.00 | 81 | 1017.2 |
| 20260505191025 | 59 | 214 | 3.0 | 8.0 | 0.00 | 0.00 | 0.00 | 83 | 1017.1 |
| 20260505190526 | 59 | 166 | 3.0 | 8.0 | 0.00 | 0.00 | 0.00 | 81 | 1017.1 |
| 20260505190040 | 59 | 237 | 2.0 | 8.0 | 0.00 | 0.00 | 0.00 | 81 | 1017.0 |
| 20260505185526 | 58 | 138 | 5.0 | 8.0 | 0.00 | 0.00 | 0.00 | 82 | 1017.1 |
| 20260505185026 | 58 | 179 | 4.0 | 6.0 | 0.00 | 0.00 | 0.00 | 81 | 1017.3 |
| 20260505184540 | 58 | 224 | 2.0 | 5.0 | 0.00 | 0.00 | 0.00 | 82 | 1017.3 |
| 20260505184026 | 58 | 208 | 2.0 | 5.0 | 0.00 | 0.00 | 0.00 | 81 | 1017.3 |
| 20260505183526 | 58 | 232 | 2.0 | 5.0 | 0.00 | 0.00 | 0.00 | 82 | 1017.3 |
| 20260505183048 | 58 | 196 | 2.0 | 6.0 | 0.00 | 0.00 | 0.00 | 82 | 1017.3 |
| 20260505182528 | 58 | 222 | 2.0 | 6.0 | 0.00 | 0.00 | 0.00 | 82 | 1017.1 |
| 20260505182026 | 58 | 192 | 3.0 | 7.0 | 0.00 | 0.00 | 0.00 | 83 | 1017.1 |
| 20260505181543 | 58 | 172 | 4.0 | 7.0 | 0.00 | 0.00 | 0.00 | 83 | 1017.2 |
| 20260505181026 | 58 | 217 | 4.0 | 7.0 | 0.00 | 0.00 | 0.00 | 82 | 1017.1 |
| 20260505180525 | 58 | 176 | 3.0 | 7.0 | 0.00 | 0.00 | 0.00 | 83 | 1017.0 |
| 20260505180059 | 57 | 231 | 3.0 | 7.0 | 0.00 | 0.00 | 0.00 | 83 | 1016.9 |
| 20260505175526 | 57 | 159 | 2.0 | 6.0 | 0.00 | 0.00 | 0.00 | 83 | 1017.0 |
| 20260505175027 | 57 | 204 | 5.0 | 6.0 | 0.00 | 0.00 | 0.00 | 82 | 1017.0 |
| 20260505174552 | 57 | 202 | 2.0 | 5.0 | 0.00 | 0.00 | 0.00 | 83 | 1017.0 |
| 20260505174026 | 57 | 178 | 3.0 | 8.0 | 0.00 | 0.00 | 0.00 | 83 | 1017.0 |
| 20260505173529 | 57 | 157 | 4.0 | 8.0 | 0.00 | 0.00 | 0.00 | 83 | 1017.0 |
| 20260505173045 | 57 | 175 | 3.0 | 8.0 | 0.00 | 0.00 | 0.00 | 83 | 1016.8 |
| 20260505172526 | 57 | 134 | 3.0 | 8.0 | 0.00 | 0.00 | 0.00 | 83 | 1017.0 |
| 20260505172028 | 57 | 159 | 5.0 | 8.0 | 0.00 | 0.00 | 0.00 | 83 | 1016.8 |
| 20260505171542 | 57 | 142 | 3.0 | 6.0 | 0.00 | 0.00 | 0.00 | 83 | 1016.9 |
| 20260505171026 | 57 | 186 | 3.0 | 9.0 | 0.00 | 0.00 | 0.00 | 84 | 1016.8 |
| 20260505170526 | 57 | 171 | 3.0 | 9.0 | 0.00 | 0.00 | 0.00 | 83 | 1016.8 |
| 20260505170046 | 57 | 184 | 3.0 | 6.0 | 0.00 | 0.00 | 0.00 | 83 | 1016.8 |
| 20260505165528 | 57 | 149 | 3.0 | 6.0 | 0.00 | 0.00 | 0.00 | 83 | 1016.7 |
| 20260505165029 | 57 | 161 | 2.0 | 6.0 | 0.00 | 0.00 | 0.00 | 83 | 1016.7 |
| 20260505164543 | 57 | 207 | 4.0 | 9.0 | 0.00 | 0.00 | 0.00 | 84 | 1016.7 |
| 20260505164031 | 57 | 225 | 5.0 | 9.0 | 0.00 | 0.00 | 0.00 | 83 | 1016.7 |
| 20260505163527 | 57 | 169 | 4.0 | 8.0 | 0.00 | 0.00 | 0.00 | 84 | 1016.5 |
| 20260505163042 | 57 | 146 | 4.0 | 8.0 | 0.00 | 0.00 | 0.00 | 83 | 1016.5 |
| 20260505162525 | 57 | 157 | 5.0 | 8.0 | 0.00 | 0.00 | 0.00 | 84 | 1016.4 |
| 20260505162026 | 57 | 171 | 3.0 | 9.0 | 0.00 | 0.00 | 0.00 | 84 | 1016.4 |
| 20260505161552 | 56 | 189 | 5.0 | 9.0 | 0.00 | 0.00 | 0.00 | 84 | 1016.4 |
| 20260505161027 | 56 | 164 | 5.0 | 9.0 | 0.00 | 0.00 | 0.00 | 84 | 1016.3 |
| 20260505160527 | 56 | 154 | 5.0 | 7.0 | 0.00 | 0.00 | 0.00 | 85 | 1016.4 |
| 20260505153044 | 56 | 176 | 5.0 | 8.0 | 0.00 | 0.00 | 0.00 | 86 | 1016.2 |
| 20260505152525 | 56 | 205 | 3.0 | 7.0 | 0.00 | 0.00 | 0.00 | 87 | 1016.1 |
| 20260505152025 | 56 | 159 | 2.0 | 6.0 | 0.00 | 0.00 | 0.00 | 87 | 1016.1 |
| 20260505151542 | 56 | 168 | 3.0 | 6.0 | 0.00 | 0.00 | 0.00 | 87 | 1016.1 |
| 20260505151026 | 56 | 167 | 3.0 | 6.0 | 0.00 | 0.00 | 0.00 | 87 | 1016.0 |
| 20260505150526 | 56 | 169 | 4.0 | 6.0 | 0.00 | 0.00 | 0.00 | 87 | 1016.0 |
| 20260505140526 | 55 | 186 | 1.0 | 4.0 | 0.00 | 0.00 | 0.00 | 89 | 1015.6 |